星链-30202 (STARLINK-30202 )

导读 | 豆包AI

STARLINK-30202是美国太空探索技术公司星链星座的成员,于2023年7月10日成功发射入轨。它属于星链卫星互联网项目的扩容卫星,配备星链特有的卫星通信载荷,依靠低轨道运行优势,为全球提供低延迟宽带互联网服务,能覆盖偏远地区,进一步完善了星链星座的全球覆盖与服务能力。

基本信息
目录编号:
57293
目录名称:
STARLINK-30202
国际标识:
2023-096D
轨道中心:
EARTH
卫星名称:
星链-30202
卫星全名:
星链-30202 (STARLINK-30202 )
卫星状态:
已陨落 最后检测时间 2024-09-18
发射日期:
2023-07-10 UTC
国别 :
美国 (US)
星等 :
--
轨道信息
数据来源 国际轨道数据
星历时间: 2024-09-17T22:24:41+0800
轨道信息已过期615天
半长轴: 6619.017km
偏心率: 0.0022344
轨道倾角: 42.981°
近地点辐角 201.709°
升交点赤经 188.943°
平近点角 291.479°
近地点: 226.092km
远地点: 255.672km
周期: 89.320分钟
每日圈数: 16.121764
详细信息
固有亮度:
5
最大亮度:
0.3
卫星平台:
Starlink v2.0 mini
覆盖范围:
全球
运营商:
太空探索技术公司
运营商所在国:
美国
制造商(研发单位):
太空探索技术公司
制造商所在国:
美国
使用方式:
暂无
卫星简介
星链(Starlink)计划是由太空探索技术公司(SpaceX)提出的一个巨型低轨卫星互联网星座项目,计划在2019年至2024年间在太空搭建由约1.2万颗卫星组成的“星链”网络,其中1584颗将部署在地球上空550千米处的近地轨道,并从2020年开始工作。该卫星仍在工作。